Theta_e
312 312 312 312 311 309 307 308 308 308 308 311 313 316 316 313 309 308 308 310 311 315 322 321 320 321 344 346 347 347 351 353 354 354 354 347 349 347 344 343 344 344 343 343 342
312 312 312 311 311 311 309 308 308 308 308 308 311 314 316 315 312 310 310 310 310 315 320 323 323 320 331 338 345 348 352 351 347 349 350 346 347 344 344 346 345 344 344 342 342
311 311 310 312 312 311 310 309 308 308 308 308 309 312 315 314 311 309 314 310 310 315 320 322 321 324 326 330 337 346 350 348 350 347 347 346 346 347 345 347 344 344 344 344 343
313 309 309 309 310 312 311 310 309 309 308 308 308 310 313 312 311 322 318 311 310 319 318 321 320 323 327 332 337 349 346 347 350 348 345 348 345 347 347 346 343 343 342 343 342
314 309 307 307 307 308 309 309 308 308 308 308 308 310 312 311 313 319 316 310 310 318 320 322 321 325 330 331 339 346 346 348 350 347 349 347 346 346 345 344 343 343 343 342 340
314 308 310 310 308 306 306 307 307 307 307 307 307 309 311 312 313 312 316 314 310 320 322 322 321 326 329 331 337 339 347 350 349 347 348 346 346 346 346 343 343 342 341 341 340
313 310 311 308 307 307 307 307 306 306 306 306 307 309 311 314 314 316 319 318 310 321 322 321 320 327 331 333 332 342 350 349 350 349 349 346 349 348 346 343 343 341 341 342 342
314 311 312 313 316 317 316 314 309 307 307 307 308 309 312 312 316 320 315 311 312 322 316 317 323 327 332 333 324 343 347 353 351 350 347 347 354 348 346 344 343 342 343 344 345
315 311 312 313 314 315 315 316 317 310 307 307 308 308 312 314 314 319 312 311 313 315 316 316 321 326 330 331 327 333 343 350 354 349 349 348 352 348 347 344 345 345 345 345 345
314 315 312 312 313 314 315 316 318 316 311 314 310 316 317 318 314 320 317 318 313 314 315 316 321 328 328 329 335 330 334 350 355 352 350 350 349 345 347 344 345 346 345 345 345
312 314 315 315 314 314 316 316 317 318 317 318 317 316 317 318 318 320 319 316 315 315 317 320 326 332 333 329 325 328 340 353 352 349 351 349 346 347 347 346 346 346 346 346 346
312 311 315 316 315 314 316 317 317 318 318 317 317 318 318 317 317 316 318 319 316 315 319 323 324 329 327 323 326 350 351 354 351 346 347 347 350 348 347 347 346 346 346 346 347
312 312 312 316 315 315 317 317 317 317 318 317 316 317 317 318 319 318 317 319 315 317 322 324 325 327 326 324 325 333 342 352 351 348 346 350 352 352 348 347 347 345 344 345 346
310 312 311 315 316 317 318 317 318 318 320 322 320 318 318 318 320 318 320 319 320 319 324 327 323 328 324 326 325 328 330 348 348 346 352 345 352 348 350 349 347 346 345 342 345
309 311 311 316 317 317 318 319 320 315 323 322 321 318 318 319 320 319 321 322 321 322 324 327 324 324 325 326 324 327 327 347 345 348 347 347 349 346 349 352 349 347 346 343 343
310 311 314 317 317 318 319 320 316 320 323 322 320 321 318 319 321 320 320 322 321 322 323 324 321 325 326 324 324 331 344 345 345 348 340 343 348 350 352 350 349 346 346 345 343
310 313 317 318 318 318 320 319 322 323 321 321 321 321 320 320 322 322 323 324 323 325 326 325 323 322 322 323 324 332 336 343 346 348 338 342 350 343 348 347 347 347 346 345 345
315 316 318 319 319 319 321 320 324 323 323 320 321 320 320 320 321 323 324 325 320 322 324 327 326 324 322 324 324 338 333 334 337 339 340 346 350 347 346 344 346 346 345 345 345
318 319 320 320 319 321 318 321 320 321 321 322 320 322 323 322 321 323 324 325 324 322 324 324 324 322 322 323 324 324 327 331 337 335 342 348 346 344 347 345 346 346 345 344 344
319 322 321 322 321 320 320 319 319 318 320 320 321 321 324 324 322 323 322 321 321 320 320 322 325 323 323 322 322 325 326 327 329 343 341 348 349 350 351 350 346 347 345 345 344
320 322 321 321 320 318 321 319 319 318 318 320 319 321 322 324 324 322 321 319 319 321 319 322 324 326 323 324 325 325 326 327 329 332 338 346 349 346 349 349 349 347 347 346 344
319 323 321 320 320 315 320 319 316 316 315 316 317 320 322 322 323 322 320 319 319 320 323 321 323 326 326 323 321 326 327 330 329 338 342 346 349 346 348 347 348 347 348 346 345
320 320 321 320 320 319 317 316 317 318 318 318 318 317 319 321 325 323 321 321 321 319 322 322 323 327 326 324 322 325 323 327 333 338 345 340 345 346 347 346 347 345 345 345 345
317 319 318 318 312 317 316 316 317 315 317 317 317 316 320 321 320 323 322 322 320 324 322 319 321 326 327 326 324 325 326 326 328 332 339 340 348 348 347 349 344 344 343 344 344
319 318 314 319 316 314 315 316 317 317 316 317 319 317 320 322 320 320 319 320 321 318 320 322 324 323 322 322 325 329 328 326 325 329 332 338 346 347 347 346 345 343 342 342 343
321 321 315 313 311 316 314 317 316 317 316 314 319 317 318 320 319 319 318 318 319 318 324 322 326 324 325 323 322 329 330 333 334 332 340 341 346 345 343 343 342 341 340 339 339
321 321 316 312 314 316 316 317 317 316 315 314 316 318 318 316 315 315 314 314 313 316 319 324 326 328 327 324 323 327 334 336 336 338 341 344 343 343 342 341 339 337 336 334 335
Wind_Speed
12 11 11 11 10 9 9 9 10 10 8 8 7 9 9 9 10 13 16 10 14 15 21 20 15 15 12 7 3 1 0 2 5 12 7 5 1 3 9 17 5 5 19 23 27
12 11 10 10 10 9 8 9 8 9 10 8 7 7 9 9 11 16 9 9 13 16 25 22 18 17 6 6 4 2 1 1 4 6 13 10 3 9 8 12 12 23 25 29 25
16 14 13 11 10 9 8 7 9 8 8 9 8 6 7 8 9 2 2 16 17 20 23 20 16 12 5 6 5 3 2 3 0 15 24 14 6 2 10 4 18 34 34 29 26
18 16 14 12 9 8 7 7 8 9 8 8 7 6 6 4 1 4 1 14 20 19 23 22 17 9 5 6 8 4 4 3 8 16 17 10 7 10 5 3 20 33 36 29 27
18 17 15 13 10 8 8 8 8 7 7 7 5 6 4 5 6 5 2 16 22 19 23 18 19 7 4 5 8 4 7 5 9 20 13 9 7 4 10 17 26 28 29 27 23
18 17 15 13 11 8 7 7 6 6 6 6 5 5 5 5 4 6 4 18 22 24 26 17 13 7 3 5 5 5 10 9 16 20 15 12 4 4 6 21 26 27 25 24 22
18 15 15 14 13 12 10 7 6 5 4 4 4 4 7 8 3 6 5 19 25 25 25 17 6 5 4 6 1 8 9 7 13 18 9 19 5 3 11 23 24 23 22 21 20
17 14 14 13 13 13 12 11 11 7 3 0 2 3 5 3 6 7 11 20 22 22 13 15 7 3 2 1 4 6 6 5 9 16 16 10 11 5 15 23 23 23 21 20 20
14 14 11 10 11 13 13 10 9 6 5 3 2 2 1 1 7 10 14 15 17 16 9 10 7 3 3 3 5 3 4 7 11 10 13 1 8 9 17 24 24 23 22 20 17
14 13 11 9 10 12 14 11 10 3 1 3 1 0 3 3 6 13 13 12 17 16 3 6 5 5 2 5 7 6 5 7 9 10 11 12 6 10 17 24 24 24 22 20 20
15 12 11 11 10 12 10 7 9 4 12 6 5 5 6 4 6 15 14 14 16 12 5 6 9 12 11 7 1 3 7 10 9 4 10 5 4 10 18 21 25 23 23 23 23
15 13 11 11 11 9 6 3 5 8 8 5 6 14 11 5 4 13 20 5 9 14 8 5 16 10 6 4 2 6 12 7 6 6 4 7 4 9 17 19 21 24 24 25 20
15 14 12 10 9 4 6 4 11 14 4 4 4 2 2 9 6 15 23 10 11 13 14 11 2 11 9 7 7 3 5 9 7 8 6 10 5 7 12 17 11 17 23 23 23
16 14 10 7 4 6 3 9 17 8 2 8 2 2 4 4 4 16 21 10 5 12 11 8 4 15 10 11 9 7 5 9 14 8 5 5 2 2 11 17 17 17 18 25 25
16 15 8 4 3 4 5 15 13 1 2 11 3 2 1 3 10 11 22 9 8 8 5 6 12 11 11 10 9 2 8 11 8 4 5 4 4 5 12 13 20 24 25 23 27
15 12 5 1 2 3 10 14 1 2 4 4 5 5 2 4 5 10 14 7 2 5 5 4 4 8 7 5 11 10 15 11 3 2 4 7 5 7 12 16 19 29 27 27 28
13 8 4 4 2 8 11 6 2 4 3 6 4 6 5 1 6 13 12 9 5 8 11 7 6 4 4 7 6 10 15 4 3 4 3 1 8 5 14 11 24 27 32 29 27
8 3 2 3 6 8 10 1 5 2 3 2 3 4 2 3 4 6 11 9 3 3 6 10 10 10 7 10 7 15 12 6 6 6 5 4 7 2 2 11 19 26 31 23 25
4 3 3 4 5 5 1 4 1 1 4 6 3 3 3 1 1 4 6 12 10 7 3 9 8 3 8 7 12 6 8 3 3 2 5 4 3 4 3 8 17 24 24 30 25
3 3 9 3 5 6 4 2 1 3 4 2 5 2 2 2 3 2 3 3 5 6 4 3 5 4 8 7 4 7 11 8 4 7 7 5 4 3 1 3 13 18 25 29 27
2 3 6 7 6 6 3 1 3 4 4 2 3 3 3 3 4 2 1 3 1 2 8 5 2 4 6 9 14 7 5 1 3 2 7 5 4 2 2 5 9 13 14 21 27
2 2 2 7 3 2 2 1 4 4 4 1 0 3 3 5 4 3 2 2 7 5 5 2 2 4 2 2 3 3 9 9 9 8 1 2 2 2 2 9 12 12 11 12 17
3 3 3 6 2 2 0 1 3 7 6 7 4 4 4 2 5 4 3 3 9 2 3 6 1 3 5 5 3 3 2 2 4 3 6 6 3 3 5 9 11 14 14 17 18
3 2 3 4 4 2 2 2 1 5 4 3 5 1 1 6 6 4 4 3 8 4 7 2 3 2 3 3 2 4 4 4 5 7 7 3 7 10 9 9 11 12 15 20 21
3 2 1 1 4 4 2 1 4 5 6 10 3 9 2 3 4 1 4 5 2 8 2 1 5 4 6 8 10 9 5 3 2 1 7 8 12 14 11 11 12 13 15 17 21
3 3 4 3 1 3 2 2 3 2 6 5 4 6 7 4 3 3 5 4 1 7 1 5 3 4 4 8 2 11 12 8 7 3 4 10 5 12 14 13 13 13 15 18 17
4 6 3 1 2 2 1 2 2 1 1 3 2 1 4 5 5 4 3 2 3 1 4 4 2 2 2 8 4 3 9 6 2 2 1 6 1 17 15 16 14 13 15 16 17
Wind_Direction
352 343 334 325 320 313 309 309 308 301 289 280 272 280 280 281 274 265 256 238 208 186 178 171 169 163 158 169 153 117 272 338 3 150 122 145 322 72 113 127 98 166 143 147 152
357 347 336 327 318 311 302 297 298 303 299 287 275 272 280 283 283 270 255 215 200 194 183 174 164 159 155 171 187 221 219 278 351 150 138 146 264 125 133 120 100 112 127 144 152
2 354 348 333 321 317 310 293 289 294 293 291 279 271 272 291 303 254 199 197 191 192 187 178 174 152 153 167 179 183 17 157 66 152 147 159 156 47 130 151 169 143 144 151 158
1 357 350 345 331 311 303 300 292 289 285 278 280 264 264 264 210 165 114 188 183 186 185 182 177 162 159 176 185 163 125 73 138 153 153 160 131 120 19 177 157 146 150 155 161
0 356 352 348 343 331 315 307 297 288 279 274 266 260 245 246 240 196 291 180 174 180 178 176 171 159 189 170 170 199 172 92 100 150 133 104 108 55 78 129 144 145 152 158 162
2 2 4 360 358 353 342 318 304 294 282 269 261 236 228 248 232 218 224 187 182 173 171 174 180 186 133 172 203 161 158 128 141 170 151 133 140 349 112 140 145 152 158 161 166
7 12 12 17 28 34 31 16 352 318 283 267 243 224 235 239 273 191 178 185 181 177 177 174 163 190 163 163 189 137 135 134 145 163 137 130 156 220 146 149 153 160 165 169 171
11 15 24 34 40 35 27 27 22 14 7 330 219 206 236 226 219 174 150 167 178 179 184 191 183 224 256 301 127 143 153 158 160 146 150 178 177 205 156 160 166 167 174 178 182
8 12 15 17 18 15 9 6 360 13 51 39 105 226 249 356 186 167 144 164 168 163 122 177 180 208 261 220 158 190 164 172 164 171 154 291 117 154 176 180 176 177 180 185 188
3 3 2 354 357 359 356 351 355 19 88 8 303 326 98 41 171 165 148 158 155 171 156 143 160 187 212 211 191 167 177 176 156 168 161 119 104 151 168 180 179 183 187 190 195
3 355 349 341 345 346 354 359 353 333 304 256 275 274 298 84 155 177 157 142 141 140 165 183 187 195 190 224 297 143 168 161 113 155 145 136 132 165 173 178 181 186 190 196 203
358 355 340 336 334 346 7 18 346 316 307 327 268 254 240 211 126 166 170 145 157 158 146 168 211 177 177 208 219 132 154 107 90 134 133 166 105 155 171 174 180 186 193 199 197
346 349 341 331 338 1 341 343 337 328 267 309 330 299 207 180 178 172 170 155 167 164 173 189 186 175 175 178 177 179 175 162 143 129 110 147 95 134 182 179 182 191 201 205 199
336 340 338 330 333 342 338 330 332 322 323 26 53 122 132 125 146 174 171 149 167 190 173 200 126 177 174 183 193 196 177 153 143 165 153 219 127 268 160 192 199 199 199 208 206
331 336 333 305 314 335 339 330 321 231 72 339 26 41 226 195 138 182 180 195 179 177 199 148 148 170 182 183 182 188 173 153 153 103 153 169 127 184 180 201 198 200 203 206 210
325 341 352 352 270 336 336 339 86 242 57 350 345 360 212 185 160 141 181 194 163 160 201 131 141 175 197 178 185 125 120 103 95 1 248 200 208 185 190 216 204 197 197 204 206
320 339 19 360 324 323 336 333 285 43 335 356 345 341 323 156 131 162 178 188 193 183 192 188 170 165 168 153 176 186 163 135 168 196 223 206 203 246 198 217 203 196 196 198 203
323 337 349 321 303 312 334 114 63 315 299 334 322 320 34 337 112 154 167 190 168 110 179 204 208 204 169 213 182 185 194 199 182 199 175 143 219 208 299 233 211 201 206 196 202
11 47 27 340 321 330 24 54 60 266 319 322 307 44 16 299 115 150 204 205 208 198 220 192 228 184 193 168 181 188 223 249 109 83 208 174 241 234 9 171 185 187 193 202 206
61 98 16 39 38 13 74 98 317 247 304 276 18 7 349 336 147 96 180 168 178 215 215 159 229 194 160 157 152 203 175 193 219 183 213 196 253 187 90 135 189 183 193 201 203
109 115 43 55 36 59 72 39 287 278 250 300 11 328 357 311 64 61 337 80 344 202 200 166 244 131 157 203 183 173 194 188 183 303 218 185 212 129 221 173 186 189 180 190 192
122 100 110 30 43 40 61 311 347 324 14 319 238 43 66 342 59 331 80 5 333 199 192 182 180 244 113 358 267 215 198 193 214 186 128 314 163 312 150 164 167 158 154 154 167
87 93 81 39 77 59 69 5 332 12 8 8 18 10 93 85 162 239 1 22 4 152 181 183 159 205 148 148 141 124 107 182 128 151 186 229 173 162 147 163 162 166 152 162 164
108 115 58 68 83 125 97 33 46 20 47 3 1 280 32 34 30 75 330 341 1 56 39 47 88 320 240 93 89 127 73 154 272 212 165 219 160 192 185 173 164 161 157 167 172
66 90 105 92 59 94 74 32 39 11 2 22 54 24 352 76 76 12 318 322 347 13 31 355 71 58 68 83 86 84 81 141 180 293 231 182 194 187 182 173 161 160 151 150 174
102 142 94 80 82 87 22 52 62 33 6 9 31 15 45 78 41 10 331 25 32 323 109 13 87 16 73 19 14 80 56 88 70 136 59 148 166 169 158 146 143 141 144 143 150
88 112 125 359 111 137 118 144 105 119 69 36 333 340 44 15 324 311 290 76 40 42 8 21 122 58 29 349 306 178 17 33 90 78 128 182 338 164 161 157 144 138 140 139 144